Powrót do katalogu

THORAD AGENA D DEB

AktywnyLEO
NORAD 4996·DEBRIS·🇺🇸 United States

Wystrzelony Apr 8, 1970 z Vandenberg Space Force Base

Loading…

Następne Przeloty (najbliższe 24 godziny)

TLE

ŚwieżeSource: Space-Track

Epoka: Sep 14, 2026, 07:17 UTC

1 04996U 70025HS  26257.30416086  .00002536  00000-0  13880-2 0  9990
2 04996 100.3491  31.2063 0070395 198.0150 161.8520 14.11814357830808

Śledź THORAD AGENA D DEB w czasie rzeczywistym z AllMySat

Download on the App Store